Regional Weather Roundup
Issued by NWS

Home | Current Version | Previous Version | Graphics & Text | Print | Product List | Glossary On
Versions: 1 2 3 4 5 6 7 8 9 10 11 12 13 14 15 16 17 18 19 20 21 22 23 24 25 26 27 28 29 30 31 32 33 34 35 36 37 38 39 40 41 42 43 44 45 46 47 48 49 50
333
ASUS45 KBOU 280307
RWRCO

WEATHER ROUNDUP FOR COLORADO
NATIONAL WEATHER SERVICE DENVER/BOULDER CO
800 PM MST MON FEB 27 2017

NOTE: "FAIR" INDICATES FEW OR NO CLOUDS BELOW 12000 FEET WITH NO
SIGNIFICANT WEATHER AND/OR OBSTRUCTIONS TO VISIBILITY.

COZ001>005-013-030-031-280400-
...NORTHWEST COLORADO...

CITY           SKY/WX    TMP DP  RH WIND       PRES   REMARKS
CRAIG          SNOW      23  19  85 SW9       29.77R VSB 1/2 WCI  13
HAYDEN         CLOUDY    21  18  86 W14       29.73R VSB 1   WCI   8
MEEKER         LGT SNOW  26  22  84 N9        29.72R VSB 1   WCI  17
MOUNT WERNER   NOT AVBL
STEAMBOAT SPGS CLOUDY    21  19  93 SW8       29.71R WCI  11
WALDEN         NOT AVBL
$$

COZ006>008-011-280400-
...WEST CENTRAL VALLEYS...

CITY           SKY/WX    TMP DP  RH WIND       PRES   REMARKS
GRAND JUNCTION CLOUDY    42  28  57 SW13      29.70R
MONTROSE       CLOUDY    39  30  70 SE5       29.74F
EAGLE          CLOUDY    37  19  48 W14       29.66S
RIFLE          MOCLDY    44  18  35 W20G36    29.65R
DELTA          CLOUDY    45  28  50 W9        29.72S
NUCLA          LGT RAIN  37  32  81 S7        29.78S
$$

COZ017>023-064>068-280400-
...SOUTHWEST COLORADO...

CITY           SKY/WX    TMP DP  RH WIND       PRES   REMARKS
DURANGO        CLOUDY    31  29  92 CALM      29.84S
CORTEZ         CLOUDY    37  33  85 W5        29.82S
PAGOSA SPRINGS SNOW      30  30 100 S3        29.86R VSB 1/2
TELLURIDE      FLURRIES  30  22  72 SW13G20   29.80R WCI  20
WOLF CREEK PAS CLOUDY    14  14 100 S26G39    29.80S WCI  -6
$$

COZ009-010-012-014-032>034-037-058>063-280400-
...CENTRAL COLORADO...

CITY           SKY/WX    TMP DP  RH WIND       PRES   REMARKS
ASPEN          CLOUDY    29  23  78 SE10      29.67R WCI  20
BUENA VISTA    CLOUDY    29  22  73 SE12G18   29.68F WCI  20
COPPER MTN     LGT SNOW  19  10  68 MISG      29.62F VSB 3/4
BERTHOUD PASS  CLOUDY    10   1  67 W40G66    29.57S WCI -14
COTTONWOOD PAS LGT SNOW  28  21  74 CALM      29.67F
GUNNISON       LGT SNOW  25  19  80 E5        29.74S WCI  19
KREMMLING      CLOUDY    36  23  60 W14G23    29.65R
LEADVILLE      LGT SNOW  20  15  81 E3        29.64F
MONARCH PASS   HVY SNOW  14  10  85 SW41G52   29.75F VSB 1/4 WCI -10
SALIDA         CLOUDY    35  21  56 W7        29.78F WCI  29
SUNLIGHT       NOT AVBL
WILKERSON PASS CLOUDY    18  14  86 SW8G22    29.68F WCI   7
$$

COZ069>075-280400-
...SAN LUIS VALLEY/SANGRE DE CRISTO MOUNTAINS...

CITY           SKY/WX    TMP DP  RH WIND       PRES   REMARKS
ALAMOSA        FAIR      28  24  85 S7        29.80S WCI  21
LA VETA PASS   CLOUDY    25  19  80 S23G43    29.78S WCI  10
SAGUACHE       FAIR      32  14  47 W6        29.74F WCI  26
$$

COZ035-036-038>040-280400-
...NORTHERN COLORADO FRONT RANGE...

CITY           SKY/WX    TMP DP  RH WIND       PRES   REMARKS
DENVER INTL AP MOCLDY    46   8  21 SW17      29.59R
DMNS CITY PARK   N/A     47   8  20 SW8G17    29.59S
AURORA         MOCLDY    43   8  24 S13       29.61R
FRONT RANGE AP MOCLDY    45  10  24 S15       29.61R
ERIE MUNI ARPT FAIR      40  13  33 NW3       29.59S
BOULDER MUN AP FAIR      43  18  36 W3        29.59R
CENTENNIAL     MOCLDY    41   9  26 S10       29.62R
BROOMFIELD     MOCLDY    41  12  30 W5        29.60R
FORT COLLINS   FAIR      34  23  64 N16       29.61R WCI  24
LONGMONT       NOT AVBL
$$

COZ041-046-047-076>085-087-088-280400-
...PIKES PEAK/PALMER DIVIDE AND SOUTHERN FOOTHILLS...

CITY           SKY/WX    TMP DP  RH WIND       PRES   REMARKS
COLO. SPRINGS  FAIR      41  11  29 SW13      29.68R
A. F. ACADEMY  FAIR      39   8  28 SW12G24   29.66F
SCHRIEVER AFB  FAIR      34   9  35 W8        29.68R WCI  27
ELLICOTT       FAIR     N/A N/A N/A SW9       29.68R
FALCON         FAIR      35   9  33 SW8       29.68S WCI  29
FORT CARSON    FAIR      41  11  28 SW7       29.66S
LIMON          FAIR     N/A N/A N/A W10G22    29.64R
MONUMENT HILL  FAIR      36  12  38 SW23G30   29.67S
TRINIDAD       FAIR      38  15  39 S8        29.75F
$$

COZ042>045-048>051-090-091-280400-
...NORTHEAST COLORADO...

CITY           SKY/WX    TMP DP  RH WIND       PRES   REMARKS
GREELEY ARPT   FAIR      33  23  66 NE9       29.64R WCI  25
AKRON          FAIR      33  21  61 NW26G32   29.62R WCI  20
BURLINGTON     FAIR      48  14  25 SW20      29.59S
WRAY           NOT AVBL
STERLING       FAIR      34  25  69 N13       29.62R WCI  25
HOLYOKE        FAIR      37  21  52 SE5       29.52F
FORT MORGAN    FAIR      32  24  70 N22G29    29.61S WCI  20
$$

COZ086-089-092>099-280400-
...SOUTHEAST COLORADO...

CITY           SKY/WX    TMP DP  RH WIND       PRES   REMARKS
PUEBLO         FAIR      48  18  30 SW17      29.68R
LA JUNTA       FAIR      51  16  24 SW24G33   29.69R
LAMAR          FAIR      53   9  17 W22       29.66R
SPRINGFIELD      N/A     38   9  30 W8        29.74R
$$




USA.gov is the U.S. government's official web portal to all federal, state and local government web resources and services.